Content
SEND FEEDBACK

Daily
Averages
Monthly
Summary
United Kingdom

LEEMING, ENGLAND


Home > Europe > United Kingdom > England
Elevation: 131 feet     Latitude: 54 18N     Longitude: 001 31W

WEATHER
 
SELECT A DAY
Number of Records: 65,645;   Date Range: 8/10/96 - 9/20/14
 
SHARE

PRINT THIS DATA

[ ← Previous Day ]
WEATHER ALMANAC - JANUARY 29, 2014
[ Next Day → ]
[ °C ]   °F
Weather ElementAverageHighLow
Temperature41.1 °F43 °F (12:00 pm)37.4 °F (8:50 pm)
Dewpoint36.2 °F39.2 °F (12:50 am)31 °F (8:00 pm)
Humidity80.3 %93 % (1:50 am)63 % (2:00 pm)
Barometer29.50 in29.71 in (10:00 pm)29.21 in (12:50 am)
Wind Speed10.3 mph15 mph (1:31 pm)
Wind Gust24.2 mph (11:37 am)
Weather ElementAverage
Visibility6.9 mi
Wind DirectionESE (95.7 °)

Weather ElementTotal
Precipitation---
Heating Degree Days24.8 (Base 65)
Averaged from 53 records on January 29, 2014
WEATHER CONDITIONS BREAKOUT
WIND DIRECTION BREAKOUT
WEATHER BY HOUR - JANUARY 29, 2014
[ °C ]   °F
Local TimeTemperatureDewpointHumidityBarometerVisibilityWind DirectionWind SpeedGust SpeedPrecipitationEventsConditions
12:50 AM42.8 °F39.2 °F87 %29.21 in3.1 miESE (110°)10.4 mphRainLight Rain Showers
1:00 AM42.0 °F38.0 °F82 %29.24 in3.0 miESE (110°)10.4 mphRainLight Rain Showers
1:50 AM41.0 °F39.2 °F93 %29.27 in5.6 miESE (120°)9.2 mphRainLight Rain Showers
2:00 AM42.0 °F39.0 °F84 %29.27 in6.0 miESE (120°)9.2 mphRainLight Rain Showers
2:50 AM41.0 °F39.2 °F93 %29.27 in6.2 miESE (120°)10.4 mphOvercast
3:00 AM42.0 °F39.0 °F84 %29.29 in12.0 miESE (120°)10.4 mphRainRain
3:50 AM41.0 °F39.2 °F93 %29.30 in5.0 miSE (130°)11.5 mphRainRain
4:00 AM42.0 °F39.0 °F85 %29.31 in5.0 miSE (130°)11.5 mphRainRain
4:50 AM41.0 °F39.2 °F93 %29.33 in6.2 miSE (140°)9.2 mphRainLight Rain
5:00 AM41.0 °F38.0 °F87 %29.35 in11.0 miSE (140°)9.2 mphRainLight Rain
5:50 AM41.0 °F39.2 °F93 %29.36 in6.2 miESE (120°)8.1 mphRainLight Rain
6:00 AM41.0 °F39.0 °F91 %29.37 in6.0 miESE (120°)8.1 mphRainLight Rain
6:50 AM42.8 °F39.2 °F87 %29.39 in6.2 miESE (110°)11.5 mphRainLight Rain
7:00 AM42.0 °F39.0 °F86 %29.40 in9.0 miESE (110°)11.5 mphRainLight Rain
7:50 AM42.8 °F39.2 °F87 %29.42 in6.2 miESE (110°)10.4 mphRainLight Rain
8:00 AM42.0 °F39.0 °F85 %29.44 in11.0 miESE (110°)10.4 mphRainLight Rain
8:50 AM41.0 °F37.4 °F87 %29.44 in6.2 miESE (110°)8.1 mphMostly Cloudy
9:00 AM41.0 °F38.0 °F85 %29.47 in11.0 miESE (110°)8.1 mphRainLight Rain
9:42 AM42.8 °F37.4 °F81 %29.47 in6.2 miEast (90°)11.5 mphMostly Cloudy
9:50 AM42.8 °F39.2 °F87 %29.47 in6.2 miEast (100°)10.4 mph21.9 mphRainLight Rain
10:00 AM42.0 °F38.0 °F82 %29.49 in11.0 miEast (100°)10.4 mphRainLight Rain
10:50 AM42.8 °F39.2 °F87 %29.50 in6.2 miESE (110°)10.4 mphMostly Cloudy
11:00 AM42.0 °F39.0 °F83 %29.51 in11.0 miESE (110°)10.4 mphRainLight Rain
11:07 AM42.8 °F39.2 °F87 %29.50 in6.2 miEast (100°)12.7 mphMostly Cloudy
11:18 AM42.8 °F39.2 °F87 %29.50 in6.2 miEast (100°)12.7 mphRainLight Rain
11:37 AM42.8 °F37.4 °F81 %29.50 in6.2 miESE (110°)12.7 mph24.2 mphMostly Cloudy
11:50 AM42.8 °F37.4 °F81 %29.50 in6.2 miESE (110°)11.5 mphRainLight Rain
12:00 PM43.0 °F37.0 °F74 %29.53 in12.0 miESE (110°)11.5 mphRainLight Rain
12:13 PM42.8 °F37.4 °F81 %29.50 in6.2 miEast (100°)13.8 mphRainLight Rain
12:50 PM42.8 °F37.4 °F81 %29.53 in6.2 miEast (100°)13.8 mphScattered Clouds
1:00 PM43.0 °F37.0 °F73 %29.54 in9.0 miEast (100°)13.8 mphRainLight Rain
1:31 PM42.8 °F35.6 °F76 %29.53 in6.2 miEast (100°)15.0 mphMostly Cloudy
1:50 PM42.8 °F33.8 °F70 %29.53 in6.2 miEast (100°)12.7 mphOvercast
2:00 PM43.0 °F35.0 °F63 %29.56 in9.0 miEast (100°)12.7 mphOvercast
2:50 PM41.0 °F33.8 °F76 %29.56 in6.2 miEast (100°)10.4 mphMostly Cloudy
3:00 PM42.0 °F34.0 °F66 %29.58 in9.0 miEast (100°)10.4 mphMostly Cloudy
3:50 PM41.0 °F33.8 °F76 %29.59 in6.2 miEast (90°)10.4 mphOvercast
4:00 PM41.0 °F34.0 °F67 %29.60 in6.0 miEast (90°)10.4 mphOvercast
4:50 PM41.0 °F33.8 °F76 %29.59 in6.2 miEast (80°)8.1 mphOvercast
5:00 PM40.0 °F33.0 °F69 %29.62 in6.0 miEast (80°)8.1 mphOvercast
5:50 PM39.2 °F33.8 °F81 %29.62 in6.2 miENE (60°)8.1 mphMostly Cloudy
6:00 PM39.0 °F34.0 °F75 %29.64 in6.0 miENE (60°)8.1 mphLight Haze
6:50 PM39.2 °F32.0 °F75 %29.65 in6.2 miENE (60°)10.4 mphMostly Cloudy
7:00 PM39.0 °F32.0 °F69 %29.66 in6.0 miENE (60°)10.4 mphPartly Cloudy
7:50 PM39.2 °F32.0 °F75 %29.65 in6.2 miENE (60°)8.1 mphMostly Cloudy
8:00 PM39.0 °F31.0 °F65 %29.68 in7.0 miENE (60°)8.1 mphMostly Cloudy
8:50 PM37.4 °F32.0 °F81 %29.68 in6.2 miNE (50°)8.1 mphMostly Cloudy
9:00 PM38.0 °F32.0 °F72 %29.69 in6.0 miNE (50°)8.1 mphMostly Cloudy
9:50 PM39.2 °F32.0 °F75 %29.68 in6.2 miENE (60°)9.2 mphOvercast
10:00 PM38.0 °F32.0 °F73 %29.71 in6.0 miENE (60°)9.2 mphOvercast
10:50 PM37.4 °F32.0 °F81 %29.68 in6.2 miENE (60°)9.2 mphMostly Cloudy
11:00 PM38.0 °F31.0 °F69 %29.71 in7.0 miENE (60°)9.2 mphN Precipitation
11:50 PM37.4 °F32.0 °F81 %29.71 in6.2 miNE (50°)6.9 mphMostly Cloudy
Hourly data recorded from EGXE, located miles away from Leeming, England







STORIES FROM OUR PARTNERS